Regional Weather Roundup
Issued by NWS

Home | Current Version | Previous Version | Graphics & Text | Print | Product List | Glossary On
Versions: 1 2 3 4 5 6 7 8 9 10 11 12 13 14 15 16 17 18 19 20 21 22 23 24 25 26 27 28 29 30 31 32 33 34 35 36 37 38 39 40 41 42 43 44 45 46 47 48 49 50
000
ASUS43 KBIS 160902
RWRND

NORTH DAKOTA REGIONAL WEATHER ROUNDUP
NATIONAL WEATHER SERVICE BISMARCK ND
300 AM CST TUE JAN 16 2018

NOTE: "FAIR" INDICATES FEW OR NO CLOUDS BELOW 12,000 FEET WITH NO
SIGNIFICANT WEATHER AND/OR OBSTRUCTIONS TO VISIBILITY.


NDZ001>003-009>011-017-161000-
NORTHWEST NORTH DAKOTA

CITY           SKY/WX    TMP DP  RH WIND       PRES   REMARKS
WILLISTON      CLEAR    -17 -23  73 S6        30.67F WCI -32
MINOT          CLOUDY   -13 -19  75 S8        30.71F WCI -30
MINOT AFB      CLOUDY   -15 -21  71 SW5       30.71F WCI -27
$$

NDZ018>021-031>035-040>046-161000-
SOUTHWEST NORTH DAKOTA

CITY           SKY/WX    TMP DP  RH WIND       PRES   REMARKS
BISMARCK       CLEAR    -21 -26  77 CALM      30.79F
DICKINSON      CLEAR    -15 -21  74 S8        30.61F WCI -32
GARRISON         N/A    -17 -22  78 CALM      30.72F
HETTINGER ARPT CLEAR    -20 -27  70 CALM      30.66F
$$

NDZ004>008-012>016-024-026-027-054-161000-
NORTHEAST NORTH DAKOTA

CITY           SKY/WX    TMP DP  RH WIND       PRES   REMARKS
GRAND FORKS    FAIR     -15 -20  78 W7        30.82F WCI -31
GRND FRKS AFB  FAIR     -15 -23  68 NW8       30.82S WCI -33
DEVILS LAKE    FAIR     -19 -24  77 W5        30.76F WCI -32
$$

NDZ022-023-025-028>030-036>039-047>053-161000-
SOUTHEAST NORTH DAKOTA

CITY           SKY/WX    TMP DP  RH WIND       PRES   REMARKS
FARGO          CLOUDY   -10 -17  71 N13       30.82S WCI -30
JAMESTOWN      CLOUDY   -14 -19  79 NW8       30.77S WCI -31
$$





USA.gov is the U.S. government's official web portal to all federal, state and local government web resources and services.